#timestamp,LO_Frequency,Hit,StdDev 
1585015215.1,286046999.9,P
1585015235.8,286047000.6,N
1585015255.7,286047000.5,N
1585015275.5,286047001.2,N
1585015295.4,286046997.1,Y
1585015315.2,286046997.1,P
1585015335.0,286046999.0,N
1585015335.9,286046999.0,N
1585015355.8,286046996.8,N
1585015375.6,286047000.0,N
1585015395.4,286046999.7,N
1585015415.3,286047000.8,N
1585015435.1,286046997.8,N
1585015455.9,286046993.6,Y
1585015475.7,286046994.8,P
1585015495.5,286046994.7,N
1585015515.4,286046995.6,N
1585015535.2,286046995.1,N
1585015555.1,286046998.0,N
1585015556.0,286046998.0,N
1585015575.8,286046994.6,Y
1585015595.6,286046996.9,P
1585015615.5,286047002.2,P
1585015635.3,286046999.7,N
1585015655.2,286047002.4,N
1585015675.9,286047002.7,N
1585015695.7,286046999.8,N
1585015715.6,286047000.1,N
1585015735.4,286047001.5,N
1585015755.3,286046998.2,N
1585015775.1,286046998.3,N
1585015795.8,286047000.8,N
1585015815.7,286046999.7,N
1585015835.5,286046998.2,N
1585015855.4,286046998.6,N
1585015875.2,286046997.3,N
1585015895.0,286046998.5,N
1585015895.9,286046998.5,N
1585015915.8,286046998.2,N
1585015935.6,286046996.6,N
1585015955.4,286046997.5,N
1585015975.3,286046996.5,N
1585015995.1,286046999.3,N
1585016015.9,286046998.3,N
1585016035.7,286047000.8,N
1585016055.5,286047000.3,N
1585016075.4,286047000.6,N
1585016095.2,286046999.7,N
1585016115.1,286047000.1,N
1585016116.0,286047000.1,N
1585016135.8,286046998.5,N
1585016155.6,286046998.7,N
1585016175.5,286046999.0,N
1585016195.3,286046998.6,N
1585016215.1,286046998.5,N
1585016235.9,286046999.5,N
1585016255.7,286046996.8,N
1585016275.6,286046996.5,N
1585016295.4,286046996.6,N
1585016315.2,286046997.2,N
1585016335.1,286046999.4,N
1585016336.0,286046999.4,N
1585016355.8,286046997.2,N
1585016375.7,286046997.7,N
1585016395.5,286046995.0,Y
1585016415.3,286046997.0,P
1585016435.2,286046996.2,P
1585016455.0,286046995.6,P
1585016455.9,286046995.6,Y
1585016475.8,286047000.3,P
1585016495.6,286046999.8,N
1585016515.4,286047000.7,N
1585016535.3,286047001.2,N
1585016555.1,286046998.5,N
1585016575.9,286047000.0,N
1585016595.7,286046999.8,N
1585016615.5,286047002.3,N
1585016635.4,286047000.9,N
1585016655.2,286047000.1,N
1585016675.0,286047002.7,N
1585016675.9,286047002.7,N
1585016695.8,286047004.3,N
1585016715.6,286046999.7,N
1585016735.5,286046999.9,N
1585016755.3,286047004.4,N
1585016775.1,286047001.7,N
1585016795.9,286046999.8,N
1585016815.7,286047002.2,N
1585016835.5,286047002.3,N
1585016855.4,286047000.2,N
1585016875.2,286046999.4,N
1585016895.1,286047000.6,N
1585016896.0,286047000.6,N
1585016915.8,286047000.0,N
1585016935.6,286047000.8,N
1585016955.5,286046999.0,N
1585016975.3,286046996.6,N
1585016995.2,286047000.6,N
1585017015.9,286047000.0,N
1585017035.7,286047000.7,N
1585017055.6,286047001.2,N
1585017075.4,286046999.8,N
1585017095.2,286047002.6,N
1585017115.1,286047002.0,N
1585017116.0,286047002.0,N
1585017135.8,286047000.2,N
1585017155.7,286047002.6,N
1585017175.5,286047000.2,N
1585017195.3,286046998.7,N
1585017215.2,286046998.8,N
1585017235.0,286047000.2,N
1585017235.9,286047000.2,N
1585017255.8,286047002.6,N
1585017275.6,286046999.8,N
1585017295.4,286047002.0,N
1585017315.3,286047001.3,N
1585017335.1,286047004.0,N
1585017355.8,286047002.9,N
1585017375.7,286047001.8,N
1585017395.5,286047003.5,N
1585017415.4,286047004.0,N
1585017435.2,286047004.1,N
1585017455.0,286047003.3,N
1585017455.9,286047003.3,N
1585017475.8,286047002.7,N
1585017495.6,286046998.3,N
1585017515.5,286046999.8,N
1585017535.3,286047005.9,Y
1585017555.1,286047002.5,P
1585017575.9,286047001.3,N
1585017595.7,286046999.9,N
1585017615.6,286046999.8,N
1585017635.4,286047001.6,N
1585017655.2,286047003.5,Y
1585017675.1,286047003.2,P
1585017676.0,286047003.2,P
1585017695.8,286046999.7,N
1585017715.6,286047000.0,N
1585017735.5,286046998.6,N
1585017755.3,286046999.7,N
1585017775.2,286047004.0,N
1585017795.9,286047005.1,N
1585017815.7,286047007.0,Y
1585017835.6,286047005.4,P
1585017855.4,286047003.1,N
1585017875.3,286047004.2,N
1585017895.1,286047002.0,N
1585017896.0,286047002.0,N
1585017915.8,286047003.4,N
1585017935.7,286047001.6,N
1585017955.5,286046999.9,N
1585017975.3,286047000.8,N
1585017995.2,286047000.2,N
1585018015.0,286047000.9,N
1585018015.9,286047000.9,N
1585018035.8,286047000.2,N
1585018055.6,286046998.9,N
1585018075.4,286047000.1,N
1585018095.3,286046999.9,N
1585018115.1,286047000.3,N
1585018135.8,286047001.6,N
1585018155.7,286047001.4,N
1585018175.5,286047003.7,N
1585018195.4,286047002.5,N
1585018215.2,286047001.7,N
1585018235.0,286047001.4,N
1585018235.9,286047001.4,N
1585018255.8,286047001.5,N
1585018275.6,286047001.6,N
1585018295.5,286047001.9,N
1585018315.3,286047001.3,N
1585018335.1,286047001.4,N
1585018355.9,286047001.3,N
1585018375.7,286047001.9,N
1585018395.5,286047000.6,N
1585018415.4,286046998.1,N
1585018435.2,286047000.3,N
1585018455.1,286046998.2,N
1585018456.0,286046998.2,N
1585018475.8,286047000.3,N
1585018495.7,286047001.1,N
1585018515.5,286047002.7,N
1585018535.4,286047001.4,N
1585018555.2,286047002.7,N
1585018575.0,286047000.5,N
1585018576.0,286047000.5,N
1585018595.8,286046998.2,N
1585018615.6,286046998.1,N
1585018635.5,286047000.9,N
1585018655.3,286047000.1,N
1585018675.1,286047003.6,N
1585018695.9,286047003.4,N
1585018715.7,286047002.2,N
1585018735.6,286047000.4,N
1585018755.4,286047002.3,N
1585018775.2,286047001.0,N
1585018795.1,286046996.7,N
1585018796.0,286046996.7,N
